Location: Roland
(31.1349°N, 85.4372°W)
Time: 21:58:08
(UTC+00:00)

Tiros 1 - Pass Details

Date: 25 April 2021
Orbit: 630 x 664 km, 48.4° (Epoch: 05 May)

Event Time Altitude Azimuth Distance (km) Brightness Sun altitude
Rises 16:47:17 0° 321° (NW) 2,927 10.3 68.6°
Reaches altitude 10° 16:51:29 10° 357° (N) 2,011 9.6 69.1°
Maximum altitude 16:52:47 11° 14° (NNE) 1,939 9.6 69.3°
Drops below altitude 10° 16:54:07 10° 30° (NNE) 2,007 9.7 69.4°
Sets 16:58:16 0° 67° (ENE) 2,911 10.6 69.9°
